Avalon, CA

5:35 PM PDT on September 28, 2016 (GMT -0700)
Catalina

Weather History for KAVX - February, 2014

Change the Weather History Date:

Sunday, February 16, 2014

  Actual Average Record
Temperature  
Mean Temperature 62 °F -  
Max Temperature 72 °F 54 °F 81 °F (2016)
Min Temperature 53 °F 47 °F 42 °F (2008)
Degree Days  
Heating Degree Days 2    
Growing Degree Days 12 (Base 50)    
Moisture  
Dew Point 32 °F    
Average Humidity 35    
Maximum Humidity 82    
Minimum Humidity 13    
Precipitation  
Precipitation 0.00 in - - ()
Sea Level Pressure  
Sea Level Pressure 30.00 in    
Wind  
Wind Speed 8 mph (WNW)    
Max Wind Speed 14 mph    
Max Gust Speed -    
Visibility 9 miles    
Events      
Averages and records for this station are not official NWS values.
T = Trace of Precipitation, MM = Missing Value Source: NWS Daily Summary

Daily Weather History Graph

Daily Weather History Graph

Search for Another Location

Airport or City:

Trip Planner

Search our weather history database for the weather conditions in past years. The results will help you decide how hot, cold, wet, or windy it might be!

Date:

Astronomy

Feb. 16, 2014 Rise Set
Actual Time 6:36 AM PST 5:39 PM PST
Civil Twilight 6:11 AM PST 6:04 PM PST
Nautical Twilight 5:42 AM PST 6:33 PM PST
Astronomical Twilight 5:13 AM PST 7:02 PM PST
Moon 7:32 PM PST (2/16) 7:15 AM PST (2/16)
Length of Visible Light 11h 53m
Length of Day
11h 02m
Full, 97% of the Moon is Illuminated
Feb 16
Full
Feb 22
Last Quarter
Mar 1
New
Mar 8
First Quarter
Mar 16
Full

Hourly Weather History & Observations

Time (PST) Temp. Dew Point Humidity Pressure Visibility Wind Dir Wind Speed Gust Speed Precip Events Conditions
12:51 AM 66.9 °F 14.0 °F 13% 29.95 in 10.0 mi WNW 8.1 mph - N/A   Clear
1:51 AM 64.0 °F 21.9 °F 20% 29.95 in 10.0 mi NNW 4.6 mph - N/A   Clear
2:51 AM 64.0 °F 26.1 °F 24% 29.97 in 10.0 mi NNW 13.8 mph - N/A   Clear
3:51 AM 64.0 °F 23.0 °F 21% 29.96 in 10.0 mi NNW 12.7 mph - N/A   Clear
4:51 AM 63.0 °F 25.0 °F 24% 29.97 in 10.0 mi WNW 11.5 mph - N/A   Clear
5:51 AM 66.0 °F 16.0 °F 15% 29.96 in 10.0 mi WNW 10.4 mph - N/A   Clear
6:45 AM 53.6 °F 48.2 °F 82% 30.04 in 0.8 mi West 11.5 mph - N/A   Haze
6:51 AM 54.0 °F 48.0 °F 80% 29.99 in 0.2 mi West 8.1 mph - N/A   Haze
6:58 AM 55.0 °F 46.0 °F 72% 30.04 in 4.0 mi Calm Calm - N/A   Haze
7:51 AM 64.0 °F 24.1 °F 22% 30.00 in 10.0 mi West 8.1 mph - N/A   Clear
8:51 AM 64.9 °F 26.1 °F 23% 30.02 in 10.0 mi West 8.1 mph - N/A   Clear
9:51 AM 64.9 °F 37.0 °F 36% 30.02 in 10.0 mi WNW 3.5 mph - N/A   Clear
10:51 AM 70.0 °F 27.0 °F 20% 30.01 in 10.0 mi WNW 6.9 mph - N/A   Clear
11:51 AM 70.0 °F 24.1 °F 18% 30.01 in 10.0 mi NW 8.1 mph - N/A   Clear
12:51 PM 72.0 °F 19.0 °F 13% 29.98 in 10.0 mi NW 9.2 mph - N/A   Clear
1:51 PM 71.1 °F 42.1 °F 35% 29.97 in 10.0 mi West 5.8 mph - N/A   Clear
2:51 PM 71.1 °F 28.0 °F 20% 29.96 in 10.0 mi West 3.5 mph - N/A   Clear
3:51 PM 66.0 °F 39.9 °F 38% 29.98 in 10.0 mi WSW 5.8 mph - N/A   Clear
4:51 PM 66.9 °F 33.1 °F 28% 29.99 in 10.0 mi West 4.6 mph - N/A   Clear
5:51 PM 66.0 °F 27.0 °F 23% 30.00 in 10.0 mi West 8.1 mph - N/A   Clear
6:51 PM 64.0 °F 35.1 °F 34% 30.04 in 10.0 mi WNW 8.1 mph - N/A   Clear
7:51 PM 63.0 °F 36.0 °F 37% 30.04 in 10.0 mi WNW 9.2 mph - N/A   Clear
8:51 PM 60.1 °F 39.9 °F 47% 30.05 in 10.0 mi WSW 8.1 mph - N/A   Clear
9:51 PM 59.0 °F 43.0 °F 55% 30.06 in 10.0 mi WSW 8.1 mph - N/A   Clear
10:51 PM 60.1 °F 41.0 °F 49% 30.06 in 10.0 mi West 10.4 mph - N/A   Clear
11:51 PM 57.0 °F 44.1 °F 62% 30.05 in 10.0 mi WSW 9.2 mph - N/A   Clear